When you browse on this site, cookies collect data to enhance your experience and personalize the content and advertising you see.
Visit our Privacy Policy to learn more. By continuing to use the site, you agree to this use of cookies and data.
  • In Spain
  • List of Countries
  • For 7 days
  • Water Temperature
  • Satellite Maps
  • Weather Map
  • Weather Widgets
  • user-avatar
    Login

    Hourly Weather Kuntaur

    Today, 18 November, Sunday

    Time Temperature Precipitation Wind Pressure Humidity
    00:00 +30°C° 0 mm 5 mps 757 mmHg 30%
    01:00 +29°C° 0 mm 5 mps 757 mmHg 31%
    02:00 +28°C° 0 mm 4 mps 757 mmHg 33%
    03:00 +28°C° 0 mm 4 mps 757 mmHg 36%
    04:00 +27°C° 0 mm 3 mps 757 mmHg 39%
    05:00 +27°C° 0 mm 3 mps 757 mmHg 38%
    06:00 +28°C° 0 mm 3 mps 758 mmHg 39%
    07:00 +28°C° 0 mm 3 mps 758 mmHg 40%
    08:00 +29°C° 0 mm 3 mps 758 mmHg 41%
    09:00 +31°C° 0 mm 3 mps 758 mmHg 36%
    10:00 +34°C° 0 mm 3 mps 758 mmHg 32%
    11:00 +37°C° 0 mm 3 mps 758 mmHg 28%
    12:00 +37°C° 0 mm 3 mps 758 mmHg 26%
    13:00 +38°C° 0 mm 3 mps 757 mmHg 25%
    14:00 +38°C° 0 mm 2 mps 757 mmHg 23%
    15:00 +36°C° 0.1 mm 3 mps 757 mmHg 28%
    16:00 +34°C° 0.1 mm 3 mps 757 mmHg 33%
    17:00 +33°C° 0.1 mm 4 mps 757 mmHg 38%
    18:00 +30°C° 0.7 mm 4 mps 758 mmHg 44%
    19:00 +29°C° 0.7 mm 4 mps 758 mmHg 51%
    20:00 +27°C° 0.7 mm 3 mps 759 mmHg 58%
    21:00 +27°C° 0.3 mm 3 mps 759 mmHg 58%
    22:00 +27°C° 0.3 mm 2 mps 759 mmHg 59%
    23:00 +27°C° 0.3 mm 2 mps 759 mmHg 60%

    Tomorrow, 19 November, Monday

    Time Temperature Precipitation Wind Pressure Humidity
    00:00 +26°C° 0.5 mm 2 mps 759 mmHg 63%
    01:00 +26°C° 0.5 mm 2 mps 759 mmHg 67%
    02:00 +26°C° 0.5 mm 2 mps 759 mmHg 70%
    03:00 +25°C° 1.1 mm 2 mps 759 mmHg 73%
    04:00 +25°C° 1.1 mm 2 mps 759 mmHg 76%
    05:00 +25°C° 1.1 mm 1 mps 759 mmHg 79%
    06:00 +25°C° 0.5 mm 1 mps 759 mmHg 78%
    07:00 +25°C° 0.5 mm 1 mps 759 mmHg 77%
    08:00 +25°C° 0.5 mm 1 mps 760 mmHg 76%
    09:00 +26°C° 0.1 mm 1 mps 760 mmHg 70%
    10:00 +28°C° 0.1 mm 1 mps 760 mmHg 64%
    11:00 +29°C° 0.1 mm 1 mps 760 mmHg 58%
    12:00 +30°C° 0 mm 1 mps 759 mmHg 56%
    13:00 +30°C° 0 mm 1 mps 758 mmHg 53%
    14:00 +31°C° 0 mm 1 mps 758 mmHg 50%
    15:00 +31°C° 0 mm 2 mps 758 mmHg 52%
    16:00 +30°C° 0 mm 2 mps 757 mmHg 53%
    17:00 +30°C° 0 mm 3 mps 757 mmHg 55%
    18:00 +29°C° 0 mm 2 mps 758 mmHg 59%
    19:00 +28°C° 0 mm 2 mps 758 mmHg 63%
    20:00 +27°C° 0 mm 2 mps 759 mmHg 67%
    21:00 +27°C° 0 mm 2 mps 759 mmHg 67%
    22:00 +26°C° 0 mm 2 mps 759 mmHg 68%
    23:00 +26°C° 0 mm 1 mps 759 mmHg 68%

    Day after tomorrow, 20 November, Tuesday

    Time Temperature Precipitation Wind Pressure Humidity
    00:00 +26°C° 0 mm 1 mps 759 mmHg 68%
    01:00 +25°C° 0 mm 1 mps 759 mmHg 68%
    02:00 +25°C° 0 mm 1 mps 758 mmHg 68%
    03:00 +25°C° 0 mm 1 mps 758 mmHg 69%
    04:00 +25°C° 0 mm 1 mps 758 mmHg 70%
    05:00 +25°C° 0 mm 1 mps 758 mmHg 70%
    06:00 +26°C° 0 mm 1 mps 758 mmHg 66%
    07:00 +27°C° 0 mm 1 mps 759 mmHg 61%
    08:00 +28°C° 0 mm 2 mps 760 mmHg 56%
    09:00 +30°C° 0 mm 2 mps 759 mmHg 49%
    10:00 +32°C° 0 mm 2 mps 759 mmHg 41%
    11:00 +35°C° 0 mm 3 mps 759 mmHg 33%
    12:00 +36°C° 0 mm 3 mps 758 mmHg 31%
    13:00 +37°C° 0 mm 2 mps 757 mmHg 29%
    14:00 +38°C° 0 mm 2 mps 756 mmHg 27%
    15:00 +37°C° 0 mm 2 mps 756 mmHg 28%
    16:00 +37°C° 0 mm 2 mps 756 mmHg 29%
    17:00 +35°C° 0 mm 1 mps 756 mmHg 30%
    18:00 +34°C° 0 mm 1 mps 757 mmHg 33%
    19:00 +33°C° 0 mm 1 mps 758 mmHg 35%
    20:00 +32°C° 0 mm 1 mps 758 mmHg 38%
    21:00 +31°C° 0 mm 1 mps 758 mmHg 38%
    22:00 +31°C° 0 mm 1 mps 758 mmHg 38%
    23:00 +30°C° 0 mm 1 mps 758 mmHg 38%

    21 November, Wednesday

    Time Temperature Precipitation Wind Pressure Humidity
    00:00 +30°C° 0 mm 1 mps 758 mmHg 38%
    01:00 +29°C° 0 mm 2 mps 758 mmHg 38%
    02:00 +29°C° 0 mm 2 mps 757 mmHg 38%
    03:00 +28°C° 0 mm 2 mps 757 mmHg 39%
    04:00 +27°C° 0 mm 2 mps 757 mmHg 40%
    05:00 +27°C° 0 mm 2 mps 757 mmHg 40%
    06:00 +28°C° 0 mm 2 mps 758 mmHg 38%
    07:00 +29°C° 0 mm 3 mps 758 mmHg 36%
    08:00 +30°C° 0 mm 3 mps 759 mmHg 34%
    09:00 +33°C° 0 mm 3 mps 759 mmHg 30%
    10:00 +35°C° 0 mm 3 mps 759 mmHg 27%
    11:00 +37°C° 0 mm 3 mps 759 mmHg 23%
    12:00 +38°C° 0 mm 3 mps 758 mmHg 22%
    13:00 +39°C° 0 mm 2 mps 757 mmHg 22%
    14:00 +40°C° 0 mm 1 mps 756 mmHg 21%
    15:00 +39°C° 0 mm 1 mps 756 mmHg 22%
    16:00 +37°C° 0 mm 1 mps 756 mmHg 23%
    17:00 +37°C° 0 mm 1 mps 756 mmHg 24%
    18:00 +35°C° 0 mm 1 mps 756 mmHg 25%
    19:00 +34°C° 0 mm 1 mps 757 mmHg 27%
    20:00 +33°C° 0 mm 1 mps 757 mmHg 28%
    21:00 +32°C° 0 mm 2 mps 758 mmHg 29%
    22:00 +31°C° 0 mm 2 mps 758 mmHg 31%
    23:00 +30°C° 0 mm 3 mps 758 mmHg 32%

    22 November, Thursday

    Time Temperature Precipitation Wind Pressure Humidity
    00:00 +30°C° 0 mm 3 mps 757 mmHg 34%
    01:00 +29°C° 0 mm 3 mps 757 mmHg 36%
    02:00 +28°C° 0 mm 3 mps 757 mmHg 38%
    03:00 +27°C° 0 mm 3 mps 757 mmHg 40%
    04:00 +27°C° 0 mm 3 mps 757 mmHg 41%
    05:00 +26°C° 0 mm 3 mps 758 mmHg 42%
    06:00 +27°C° 0 mm 3 mps 758 mmHg 40%
    07:00 +28°C° 0 mm 4 mps 759 mmHg 38%
    08:00 +29°C° 0 mm 4 mps 759 mmHg 36%
    09:00 +33°C° 0 mm 4 mps 759 mmHg 31%
    10:00 +35°C° 0 mm 4 mps 759 mmHg 26%
    11:00 +38°C° 0 mm 4 mps 758 mmHg 21%
    12:00 +38°C° 0 mm 4 mps 757 mmHg 20%
    13:00 +39°C° 0 mm 3 mps 756 mmHg 19%
    14:00 +40°C° 0 mm 3 mps 755 mmHg 18%
    15:00 +39°C° 0 mm 2 mps 755 mmHg 20%
    16:00 +39°C° 0 mm 2 mps 755 mmHg 21%
    17:00 +37°C° 0 mm 1 mps 755 mmHg 22%
    18:00 +37°C° 0 mm 2 mps 756 mmHg 23%
    19:00 +35°C° 0 mm 2 mps 756 mmHg 25%
    20:00 +34°C° 0 mm 3 mps 757 mmHg 26%
    21:00 +33°C° 0 mm 3 mps 757 mmHg 28%
    22:00 +32°C° 0 mm 4 mps 757 mmHg 30%
    23:00 +32°C° 0 mm 4 mps 757 mmHg 32%

    23 November, Friday

    Time Temperature Precipitation Wind Pressure Humidity
    00:00 +30°C° 0 mm 4 mps 757 mmHg 35%
    01:00 +29°C° 0 mm 4 mps 757 mmHg 38%
    02:00 +28°C° 0 mm 4 mps 756 mmHg 41%
    03:00 +28°C° 0 mm 4 mps 757 mmHg 43%
    04:00 +27°C° 0 mm 4 mps 757 mmHg 45%
    05:00 +27°C° 0 mm 3 mps 757 mmHg 48%
    06:00 +27°C° 0 mm 3 mps 758 mmHg 46%
    07:00 +28°C° 0 mm 4 mps 758 mmHg 45%
    08:00 +28°C° 0 mm 4 mps 759 mmHg 44%
    09:00 +32°C° 0 mm 4 mps 759 mmHg 37%
    10:00 +34°C° 0 mm 4 mps 758 mmHg 30%
    11:00 +37°C° 0 mm 4 mps 758 mmHg 24%
    12:00 +37°C° 0 mm 5 mps 757 mmHg 22%
    13:00 +39°C° 0 mm 5 mps 756 mmHg 21%
    14:00 +40°C° 0 mm 5 mps 756 mmHg 19%
    15:00 +39°C° 0 mm 5 mps 756 mmHg 21%
    16:00 +36°C° 0 mm 4 mps 756 mmHg 23%
    17:00 +35°C° 0 mm 4 mps 756 mmHg 25%
    18:00 +34°C° 0 mm 4 mps 756 mmHg 27%
    19:00 +33°C° 0 mm 3 mps 757 mmHg 29%
    20:00 +31°C° 0 mm 3 mps 757 mmHg 30%
    21:00 +31°C° 0 mm 3 mps 757 mmHg 32%
    22:00 +32°C° 0 mm 4 mps 757 mmHg 33%
    23:00 +30°C° 0 mm 5 mps 757 mmHg 34%
    Show more